Location: Newark
(57.7279°N, 5.6916°W)
Time: 05:37:42
(UTC+00:00)

N. Korean satellite - Pass Details

Date: 11 December 2019
Orbit: 454 x 507 km, 97.2° (Epoch: 23 January)

Event Time Altitude Azimuth Distance (km) Brightness Sun altitude
Rises 16:48:34 0° 156° (SSE) 2,605 10.4 -8.5°
Reaches altitude 10° 16:50:40 10° 153° (SSE) 1,720 9.4 -8.7°
Maximum altitude 16:54:20 66° 72° (ENE) 557 6.6 -9.2°
Drops below altitude 10° 16:58:00 10° 350° (N) 1,713 9.2 -9.6°
Sets 17:00:05 0° 347° (NNW) 2,593 10.1 -9.8°
